Location: Anankanda
(14.7841°N, 3.0348°W)
Time: 05:51:01
(UTC+00:00)

GEOS 3 Rocket - Pass Details

Date: 17 January 2021
Orbit: 772 x 847 km, 115.0° (Epoch: 07 March)

Event Time Altitude Azimuth Distance (km) Brightness Sun altitude
Exits shadow 19:24:39 25° 30° (NNE) 1,591 4.7 -19.4°
Maximum altitude 19:27:48 88° 119° (ESE) 815 3.5 -20.1°
Drops below altitude 10° 19:32:57 10° 209° (SSW) 2,366 6.6 -21.3°
Sets 19:35:12 0° 209° (SSW) 3,285 7.5 -21.9°
